Princeton, British Columbia

10:23 AM PST on January 16, 2018 (GMT -0800)
Princeton

Weather History for CWPR - September, 2012

Change the Weather History Date:

Tuesday, September 25, 2012

  Actual Average (CYDC) Record (CYDC)
Temperature  
Mean Temperature 58 °F -  
Max Temperature 71 °F 66 °F 89 °F (2014)
Min Temperature 45 °F 37 °F 26 °F (1996)
Degree Days  
Heating Degree Days 7    
Growing Degree Days 8 (Base 50)    
Moisture  
Dew Point 40 °F    
Average Humidity 52    
Maximum Humidity 80    
Minimum Humidity 17    
Precipitation  
Precipitation 0.00 in - - ()
Sea Level Pressure  
Sea Level Pressure 30.06 in    
Wind  
Wind Speed 1 mph ()    
Max Wind Speed 7 mph    
Max Gust Speed -    
Averages and records for this station are not official NWS values.
T = Trace of Precipitation, MM = Missing Value Source: Averaged Metar Reports

Daily Weather History Graph

Daily Weather History Graph

Search for Another Location

Airport or City:

Trip Planner

Search our weather history database for the weather conditions in past years. The results will help you decide how hot, cold, wet, or windy it might be!

Date:

Astronomy

Sep. 25, 2012 Rise Set
Actual Time 6:53 AM PDT 6:52 PM PDT
Civil Twilight 6:21 AM PDT 7:23 PM PDT
Nautical Twilight 5:44 AM PDT 8:01 PM PDT
Astronomical Twilight 5:05 AM PDT 8:39 PM PDT
Moon 4:38 PM PDT (9/25) 1:59 AM PDT (9/25)
Length of Visible Light 13h 02m
Length of Day
11h 58m
Waxing Gibbous, 81% of the Moon is Illuminated
Sep 25
Waxing Gibbous
Sep 29
Full
Oct 8
Last Quarter
Oct 15
New
Oct 21
First Quarter

Hourly Weather History & Observations

Time (PDT) Temp. Dew Point Humidity Pressure Visibility Wind Dir Wind Speed Gust Speed Precip Events Conditions
12:00 AM 57.6 °F 44.4 °F 62% 29.99 in - WNW 1.2 mph - N/A   Unknown
1:00 AM 57.4 °F 45.1 °F 64% 29.99 in - Calm Calm - N/A   Unknown
2:00 AM 55.6 °F 45.0 °F 67% 30.01 in - Calm Calm - N/A   Unknown
3:00 AM 57.7 °F 43.3 °F 59% 30.02 in - West 2.3 mph - N/A   Unknown
4:00 AM 52.3 °F 40.1 °F 63% 30.04 in - Calm Calm - N/A   Unknown
5:00 AM 49 °F 40 °F 63% 30.05 in - Calm Calm - -  
5:00 AM 49.3 °F 40.3 °F 71% 30.05 in - Calm Calm - N/A   Unknown
6:00 AM 47.7 °F 40.6 °F 77% 30.07 in - SE 2.3 mph - N/A   Unknown
7:00 AM 46.2 °F 40.5 °F 80% 30.08 in - Calm Calm - N/A   Unknown
8:00 AM 47.7 °F 41.0 °F 78% 30.10 in - Calm Calm - N/A   Unknown
9:00 AM 51.6 °F 41.5 °F 68% 30.10 in - Calm Calm - N/A   Unknown
10:00 AM 55.0 °F 41.9 °F 61% 30.10 in - Calm Calm - N/A   Unknown
11:00 AM 59 °F 42 °F 41% 30.10 in - Calm Calm - -  
11:00 AM 59.0 °F 41.7 °F 53% 30.10 in - Calm Calm - N/A   Unknown
12:00 PM 61.9 °F 41.0 °F 46% 30.08 in - ESE 1.2 mph - N/A   Unknown
1:00 PM 65.5 °F 41.7 °F 42% 30.06 in - SE 3.5 mph - N/A   Unknown
2:00 PM 68.5 °F 40.5 °F 36% 30.04 in - SSE 4.6 mph - N/A   Unknown
3:00 PM 69.3 °F 39.7 °F 34% 30.02 in - SSE 3.5 mph - N/A   Unknown
4:00 PM 68.4 °F 37.6 °F 32% 30.02 in - SSW 4.6 mph - N/A   Unknown
5:00 PM 70 °F 35 °F 17% 30.01 in - Calm Calm - -  
5:00 PM 70.3 °F 35.1 °F 27% 30.01 in - Calm Calm - N/A   Unknown
6:00 PM 68.4 °F 34.3 °F 28% 30.03 in - North 6.9 mph - N/A   Unknown
7:00 PM 61.7 °F 36.1 °F 39% 30.04 in - North 2.3 mph - N/A   Unknown
8:00 PM 58.8 °F 36.3 °F 43% 30.06 in - WNW 3.5 mph - N/A   Unknown
10:00 PM 50.5 °F 34.5 °F 54% 30.10 in - NNW 1.2 mph - N/A   Unknown
11:00 PM 49 °F 34 °F 44% 30.11 in - Calm Calm - -  
11:00 PM 48.9 °F 34.0 °F 56% 30.11 in - Calm Calm - N/A   Unknown